Location: Unspecified
(49.2170°N, 0.0000°E)
Time: 21:14:43
(UTC+00:00)

A-11 Canister half - Pass Details

Date: 21 June 2019
Orbit: 1527 x 1682 km, 47.3° (Epoch: 22 October)

Event Time Altitude Azimuth Distance (km) Brightness Sun altitude
Rises 03:06:29 0° 192° (SSW) 4,754 - -6.5°
Exits shadow 03:06:41 - 191° (S) 4,698 11.0 -6.5°
Reaches altitude 10° 03:10:26 10° 178° (S) 3,749 10.6 -6.1°
Maximum altitude 03:17:12 23° 132° (SE) 2,853 10.5 -5.3°
Drops below altitude 10° 03:23:52 10° 85° (E) 3,704 11.9 -4.6°
Sets 03:27:43 0° 72° (ENE) 4,684 12.9 -4.1°
